Regional Weather Roundup
Issued by NWS Sioux Falls, SD

Home | Current Version | Previous Version | Text Only | Print | Product List | Glossary Off
Versions: 1 2 3 4 5 6 7 8 9 10 11 12 13 14 15 16 17 18 19 20 21 22 23 24 25 26 27 28 29 30 31 32 33 34 35 36 37 38 39 40 41 42 43 44 45 46 47 48 49 50

396
ASUS43 KFSD 201110
RWRFSD

WEATHER ROUNDUP FOR SE SOUTH DAKOTA/SW MINNESOTA/NW IOWA
NATIONAL WEATHER SERVICE SIOUX FALLS SD
500 AM CST TUE FEB 20 2018

NOTE: "FAIR" INDICATES FEW OR NO CLOUDS BELOW 12,000 FEET WITH NO
SIGNIFICANT WEATHER AND OR OBSTRUCTIONS TO VISIBILITY.


SDZ038>040-050-052>070-201200-
SOUTHEAST SOUTH DAKOTA

CITY           SKY/WX    TMP DP  RH WIND       PRES   REMARKS
BROOKINGS      FLURRIES   6   2  83 N12       29.89S WCI  -9
CHAMBERLAIN      N/A      6   1  83 NW15      30.03F WCI -12
HURON          CLOUDY     3   0  87 NW14      30.04R WCI -15
MADISON        LGT RAIN   7   7 100 N12       29.91R WCI  -9
MITCHELL       LGT SNOW   5   1  83 NW16      30.03R FOG     WCI -14
SIOUX FALLS    LGT SNOW   9   5  84 NW12      29.93R FOG     WCI  -6
WINNER         CLOUDY     4  -1  80 NW18G25   30.03R WCI -16
YANKTON        FLURRIES   7   3  85 NW20      29.97S WCI -13
$$

MNZ071-072-080-081-089-090-097-098-201200-
SOUTHWEST MINNESOTA

CITY           SKY/WX    TMP DP  RH WIND       PRES   REMARKS
FAIRMONT       FLURRIES  17  15  92 NW14      29.86R WCI   3
JACKSON        CLOUDY    14  10  85 NW10      29.86R WCI   1
LUVERNE        LGT SNOW  10   5  79 NW7       29.91R WCI   0
MARSHALL       LGT SNOW   8   5  87 NW14      29.89F FOG     WCI  -8
MONTEVIDEO     FLURRIES  10   9  92 N10       29.90F WCI  -3
PIPESTONE        N/A      7 N/A N/A N7        29.86S WCI  -5
REDWOOD FALLS  LGT SNOW  13  11  92 N7        29.87F FOG     WCI   3
TRACY          LGT SNOW  10   7  91 NW9       29.85F WCI  -4
WINDOM         LGT SNOW  12   1  62 CALM      29.84R
WORTHINGTON    FLURRIES  10   7  87 N14       29.85R WCI  -6
$$

IAZ001>003-012>014-020>022-031-032-NEZ013-014-SDZ071-201200-
NORTHWEST IOWA

CITY           SKY/WX    TMP DP  RH WIND       PRES   REMARKS
CHEROKEE       CLOUDY    17  15  93 NW9       29.88R WCI   6
DENISON        CLOUDY    19  18  93 NW9       29.90R WCI   9
ESTHERVILLE    CLOUDY    15  13  91 N17       29.85R WCI  -1
LE MARS        CLOUDY    16  12  86 MISG      29.92R
ORANGE CITY    CLOUDY    16  12  86 NW7       29.89R WCI   6
SHELDON        CLOUDY    12  10  92 MISG      29.88R
SIOUX CITY     CLOUDY    16  12  84 NW15      29.93R WCI   1
SPENCER        CLOUDY    16  11  80 N13       29.86S WCI   2
STORM LAKE     CLOUDY    18  18 100 MISG      29.84S
$$

ABBREVIATIONS USED IN REMARKS
   TC - TEMPERATURE IN CELSIUS
  WCI - WIND CHILL INDEX
   HX - HEAT INDEX
  VSB - VISIBILITY





USA.gov is the U.S. government's official web portal to all federal, state and local government web resources and services.